Location: Cazavet
(43.0017°N, 1.0431°E)
Time: 22:39:42
(UTC+00:00)

Cosmos 1758 - Pass Details

Date: 18 January 2026
Orbit: 479 x 500 km, 82.5° (Epoch: 13 February)

Event Time Altitude Azimuth Distance (km) Brightness Sun altitude
Rises 05:27:38 0° 188° (S) 2,574 6.8 -20.7°
Reaches altitude 10° 05:29:45 10° 189° (S) 1,692 5.8 -20.3°
Maximum altitude 05:33:27 84° 276° (W) 504 2.9 -19.7°
Drops below altitude 10° 05:37:10 10° 7° (N) 1,695 5.8 -19.0°
Sets 05:39:17 0° 8° (N) 2,577 6.7 -18.6°
